RH
49 46 46 46 49 54 71 84 87 77 69 85 85 79 66 64 65 61 59 56 54 54 59 64 61 49 28 18 16 15 14 13
51 50 50 52 61 78 82 82 87 80 70 76 67 66 61 53 52 52 52 54 61 68 65 46 30 26 24 22 20 23 20 16
69 67 68 69 70 75 85 80 62 68 72 63 54 48 48 52 54 56 59 66 66 55 42 34 36 40 35 31 31 30 24 16
92 96 77 62 62 57 58 50 52 56 52 48 47 48 50 51 54 60 67 66 58 43 32 25 33 33 35 41 46 49 39 27
73 65 51 44 42 43 44 44 46 48 50 53 54 56 58 60 63 67 67 54 40 40 34 37 39 40 44 54 57 52 41 49
60 49 44 43 44 43 46 49 50 54 56 58 61 64 63 65 68 62 45 43 47 47 47 46 46 49 59 64 54 48 50 56
50 45 44 46 49 49 51 54 57 60 61 61 62 63 63 62 52 44 44 45 50 54 57 56 57 61 71 60 58 68 62 56
45 46 51 51 52 57 58 59 61 57 55 58 60 61 54 45 42 47 56 57 59 62 64 67 69 76 78 65 66 83 73 60
50 53 54 55 62 61 61 59 56 55 56 58 56 46 44 45 56 62 63 61 62 54 60 71 75 79 74 75 83 85 78 64
56 58 60 64 64 64 61 57 55 57 58 48 43 45 51 56 60 62 56 43 35 36 38 30 43 77 70 81 77 87 88 74
62 67 69 66 67 61 57 50 49 50 43 44 46 48 50 53 51 40 31 32 37 40 36 33 52 67 80 91 78 89 93 67
66 70 67 63 60 54 48 46 46 45 51 43 42 46 44 38 32 32 38 39 42 41 34 42 67 83 92 99 92 81 75 74
67 66 62 60 54 50 53 47 52 52 42 41 41 39 32 29 30 38 49 50 41 37 38 49 84 91 97 94 97 82 84 81
64 61 59 56 52 46 46 51 43 41 42 41 35 32 30 39 48 54 49 38 39 42 55 80 93 89 97 99 97 86 78 78
62 61 59 53 45 44 51 45 43 42 38 33 32 34 43 49 56 50 36 42 46 50 87 99 95 99 93 83 77 78 82 82
62 60 53 44 48 52 46 41 40 33 34 32 37 45 50 55 53 37 43 48 57 58 80 90 83 85 80 78 83 79 74 64
64 55 46 47 50 38 38 35 32 37 34 36 44 51 55 54 43 45 53 62 73 70 77 81 80 77 82 85 78 76 57 45
62 51 48 41 36 36 33 34 38 34 35 41 51 57 53 47 49 57 61 66 85 86 83 81 83 86 87 81 79 59 47 39
61 51 44 37 35 33 35 39 34 29 40 52 56 50 50 56 61 65 62 71 89 93 100 91 90 92 85 84 66 54 46 43
Wind_Speed
18 20 19 18 18 22 24 24 19 9 9 13 13 7 3 2 6 6 4 6 9 12 15 19 24 27 27 26 26 26 26 28
13 13 12 13 15 15 17 21 14 4 3 12 12 6 3 2 4 6 5 7 10 13 18 23 24 24 25 25 23 25 26 27
7 6 5 5 3 7 10 9 14 12 12 9 5 1 2 5 5 5 7 10 14 19 22 24 24 23 24 25 24 26 25 25
15 15 15 17 20 20 18 17 15 14 10 6 3 3 4 7 8 8 9 14 17 21 23 21 21 23 25 26 26 26 23 19
20 18 25 27 24 20 17 15 12 8 4 2 4 7 8 8 8 8 12 15 19 20 20 20 22 23 24 24 24 21 19 16
20 24 23 21 19 15 12 11 11 7 5 5 6 7 7 6 7 10 15 18 18 21 21 22 22 24 26 23 18 16 16 14
22 22 21 19 19 17 16 14 9 6 5 5 6 7 6 6 10 14 17 19 21 21 21 22 23 25 23 18 15 15 16 16
23 24 22 18 15 12 12 10 6 4 6 6 6 5 8 10 13 14 16 17 18 19 21 23 25 24 22 19 18 26 17 17
22 20 17 14 9 11 10 7 5 5 5 4 3 7 9 11 13 16 17 18 20 25 25 27 29 28 29 25 28 24 17 18
22 19 17 12 12 11 9 7 5 2 1 3 7 9 11 14 16 17 17 22 25 25 25 27 26 25 26 24 27 23 20 17
21 19 16 15 15 11 7 3 2 2 4 7 9 11 14 15 15 20 23 23 25 27 30 29 23 23 26 23 24 28 13 16
21 19 17 16 11 7 2 2 2 3 7 9 11 12 13 17 22 21 23 26 29 32 31 27 21 20 26 16 23 14 16 17
18 18 16 12 8 5 2 2 7 8 8 9 10 14 19 23 21 21 24 29 32 31 27 24 18 19 22 23 19 17 17 17
20 17 14 11 7 4 2 12 6 9 9 11 15 20 21 18 18 22 29 33 30 27 23 17 15 17 17 13 15 13 15 17
19 16 13 9 6 5 10 7 8 7 10 16 19 17 15 16 22 28 31 29 25 22 16 13 14 11 6 8 11 13 18 24
18 15 12 8 5 7 8 6 5 9 15 18 16 15 15 21 27 29 27 23 20 18 13 9 7 6 7 10 15 19 25 27
18 14 11 9 7 7 6 5 9 13 16 16 16 15 18 25 27 25 23 20 16 13 11 9 6 8 11 16 20 25 25 25
17 14 10 8 7 6 6 8 12 15 15 14 12 17 23 25 24 23 23 19 16 15 14 9 10 12 16 20 25 23 23 24
16 13 11 10 9 8 8 10 14 15 12 11 17 21 23 23 23 22 21 18 16 15 16 11 13 16 19 24 23 22 22 23
Wind_Direction
224 235 242 243 241 235 229 214 201 183 251 238 239 229 206 282 300 285 284 303 318 319 323 329 330 328 328 331 332 333 331 331
225 237 238 227 230 233 237 223 208 321 193 154 158 205 210 232 265 259 261 311 326 330 331 332 333 334 335 335 335 332 329 327
178 177 170 178 176 140 237 186 131 130 148 145 150 132 235 238 259 285 313 332 332 333 335 334 335 339 337 335 337 337 335 331
137 124 115 123 120 120 128 117 115 129 134 107 50 306 302 306 305 302 319 320 324 330 334 343 344 341 339 334 332 331 331 327
137 133 128 124 124 122 116 116 116 124 140 212 285 296 300 300 302 305 312 322 330 334 338 340 336 333 333 329 325 323 325 323
144 138 133 133 132 132 138 145 160 173 213 262 283 295 307 310 303 311 321 328 331 331 329 330 332 327 322 313 313 323 324 321
150 150 152 156 158 161 160 169 180 200 240 279 305 312 314 317 323 326 327 325 322 323 320 321 321 316 305 306 311 321 316 319
168 172 174 173 172 182 171 177 187 242 292 304 314 317 322 321 324 322 312 310 312 318 309 307 305 297 294 294 292 310 297 309
188 187 187 186 203 175 178 193 231 272 290 296 309 305 306 308 296 296 299 300 301 307 303 301 304 300 304 292 309 307 288 300
198 199 199 205 197 191 197 219 251 258 194 305 302 303 299 298 303 306 309 309 307 308 312 314 308 301 300 294 310 302 282 294
199 201 203 200 192 194 210 230 231 206 292 289 298 301 308 314 316 315 314 313 314 316 316 313 304 297 291 297 298 296 287 286
200 197 189 184 190 212 214 9 220 277 312 304 306 312 318 318 318 319 322 323 321 317 313 305 294 287 282 290 296 274 273 280
191 183 181 186 202 207 252 148 310 305 289 302 316 321 320 317 318 324 326 323 322 318 314 308 298 293 293 295 285 264 285 291
178 179 186 198 205 204 266 316 300 283 301 314 315 314 315 317 319 322 325 325 324 320 317 314 299 298 301 302 294 289 295 291
181 187 198 205 209 254 303 269 269 291 307 310 314 314 309 311 320 324 326 327 326 323 322 320 308 308 309 304 311 310 302 303
190 197 204 203 241 270 247 251 280 299 310 318 310 296 301 315 319 323 328 331 330 327 329 328 336 321 316 320 316 312 310 309
195 202 203 211 227 230 226 266 295 310 318 312 295 293 309 314 320 327 331 330 328 321 322 315 309 310 314 315 316 315 314 315
201 204 207 215 218 225 248 279 303 314 313 303 295 303 310 318 326 327 327 323 319 309 316 291 295 307 311 314 317 318 319 321
206 211 212 209 213 233 267 299 311 314 309 296 301 309 317 322 326 326 320 313 312 310 306 281 295 306 311 316 318 320 323 326